TimeCST,TemperatureF,Dew PointF,Humidity,Sea Level PressureIn,VisibilityMPH,Wind Direction,Wind SpeedMPH,Gust SpeedMPH,PrecipitationIn,Events,Conditions,WindDirDegrees,DateUTC
12:53 AM,19.9,16.0,85,30.25,10.0,WNW,8.1,-,N/A,,Clear,300,2013-01-16 06:53:00
1:53 AM,19.9,15.1,81,30.24,10.0,WNW,8.1,-,N/A,,Clear,290,2013-01-16 07:53:00
2:53 AM,19.0,15.1,85,30.25,10.0,West,8.1,-,N/A,,Clear,260,2013-01-16 08:53:00
3:53 AM,18.0,14.0,84,30.24,10.0,West,6.9,-,N/A,,Clear,270,2013-01-16 09:53:00
4:53 AM,18.0,14.0,84,30.23,10.0,West,5.8,-,N/A,,Clear,270,2013-01-16 10:53:00
5:53 AM,17.6,12.2,79,30.17,10.0,West,8.1,-,N/A,,Clear,270,2013-01-16 11:53:00
6:53 AM,19.0,14.0,81,30.24,10.0,West,9.2,-,N/A,,Clear,280,2013-01-16 12:53:00
7:53 AM,19.9,14.0,78,30.26,10.0,WNW,10.4,-,N/A,,Scattered Clouds,290,2013-01-16 13:53:00
8:53 AM,25.0,16.0,69,30.28,10.0,WNW,11.5,-,N/A,,Overcast,300,2013-01-16 14:53:00
9:53 AM,28.9,18.0,64,30.28,10.0,WNW,11.5,-,N/A,,Overcast,300,2013-01-16 15:53:00
10:53 AM,34.0,19.9,56,30.28,10.0,NW,13.8,-,N/A,,Overcast,310,2013-01-16 16:53:00
11:53 AM,39.0,21.0,49,30.26,10.0,NW,15.0,-,N/A,,Mostly Cloudy,310,2013-01-16 17:53:00
12:53 PM,46.4,23.0,40,30.18,10.0,WNW,13.8,-,N/A,,Scattered Clouds,300,2013-01-16 18:53:00
1:53 PM,48.9,25.0,39,30.18,10.0,NNW,17.3,-,N/A,,Partly Cloudy,330,2013-01-16 19:53:00
2:53 PM,51.1,25.0,36,30.17,10.0,NNW,17.3,-,N/A,,Clear,330,2013-01-16 20:53:00
3:53 PM,52.0,26.1,37,30.18,10.0,North,17.3,-,N/A,,Clear,350,2013-01-16 21:53:00
4:53 PM,51.1,26.1,38,30.20,10.0,NNW,17.3,21.9,N/A,,Clear,340,2013-01-16 22:53:00
5:53 PM,46.9,26.1,44,30.24,10.0,North,8.1,-,N/A,,Clear,350,2013-01-16 23:53:00
6:53 PM,39.0,25.0,57,30.28,10.0,NNW,6.9,-,N/A,,Clear,330,2013-01-17 00:53:00
7:53 PM,37.0,25.0,62,30.30,10.0,NW,10.4,-,N/A,,Clear,320,2013-01-17 01:53:00
8:53 PM,35.1,25.0,67,30.32,10.0,NNW,8.1,-,N/A,,Clear,330,2013-01-17 02:53:00
9:53 PM,34.0,25.0,70,30.32,10.0,NNW,10.4,-,N/A,,Clear,330,2013-01-17 03:53:00
10:53 PM,35.1,25.0,67,30.34,10.0,NNW,11.5,-,N/A,,Clear,330,2013-01-17 04:53:00
11:53 PM,33.1,24.1,70,30.34,10.0,NNW,10.4,-,N/A,,Clear,330,2013-01-17 05:53:00